This demonstration page uses our WeatherBlox Daily Observations layout. Learn more.

Left ArrowRight Arrow

44.89941, -97.11507

Hourly Observations for September 25, 2022

Temp ( °F °C ) Dew Point ( °F °C ) Humidity (%) Winds ( mph kmh ) Pressure ( in mb ) Visibility ( mi km ) Precip ( " mm )
12:53 am 00:53 Clear 55 12.8 46 7.8 72 72 W 9 15 29.99 1016 10 16 0.00 0.00
1:53 am 01:53 Partly Cloudy 55 12.8 46 7.8 72 72 W 12 19 29.98 1015 10 16 0.00 0.00
2:53 am 02:53 Clear 56 13.3 45 7.2 66 66 WNW 12 19 29.98 1015 10 16 0.00 0.00
3:53 am 03:53 Clear 55 12.8 44 6.7 66 66 WNW 14 22 29.99 1016 10 16 0.00 0.00
4:53 am 04:53 Clear 54 12.2 44 6.7 69 69 WNW 13 20 30.01 1016 10 16 0.00 0.00
5:53 am 05:53 Clear 52 11.1 43 6.1 71 71 WNW 12 19 30.02 1017 10 16 0.00 0.00
6:53 am 06:53 Clear 51 10.6 43 6.1 74 74 NW 12 19 30.03 1017 10 16 0.00 0.00
7:53 am 07:53 Sunny 52 11.1 43 6.1 71 71 WNW 12 19 30.04 1017 10 16 0.00 0.00
8:53 am 08:53 Sunny 55 12.8 44 6.7 66 66 NW 16 26 30.05 1018 10 16 0.00 0.00
9:53 am 09:53 Sunny 57 13.9 43 6.1 59 59 NW 16 26 30.07 1018 10 16 0.00 0.00
10:53 am 10:53 Sunny 62 16.7 43 6.1 50 50 NW 20 31 30.07 1018 10 16 0.00 0.00
11:53 am 11:53 Sunny 64 17.8 41 5 43 43 NW 20 31 30.08 1019 10 16 0.00 0.00
12:53 pm 12:53 Sunny 65 18.3 38 3.3 37 37 NW 29 46 30.09 1019 10 16 0.00 0.00
1:53 pm 13:53 Sunny 67 19.4 38 3.3 34 34 NNW 23 37 30.08 1019 10 16 0.00 0.00
2:53 pm 14:53 Mostly Sunny 66 18.9 36 2.2 33 33 NW 24 39 30.07 1018 10 16 0.00 0.00
3:53 pm 15:53 Sunny 67 19.4 34 1.1 29 29 NW 23 37 30.07 1018 10 16 0.00 0.00
4:53 pm 16:53 Sunny 66 18.9 35 1.7 32 32 NW 25 41 30.07 1018 10 16 0.00 0.00
5:53 pm 17:53 Sunny 65 18.3 34 1.1 31 31 NNW 21 33 30.07 1018 10 16 0.00 0.00
6:53 pm 18:53 Sunny 62 16.7 34 1.1 35 35 NNW 18 30 30.08 1019 10 16 0.00 0.00
7:53 pm 19:53 Clear 58 14.4 35 1.7 42 42 NNW 13 20 30.09 1019 10 16 0.00 0.00
8:53 pm 20:53 Clear 54 12.2 37 2.8 53 53 NW 9 15 30.11 1020 10 16 0.00 0.00
9:53 pm 21:53 Clear 52 11.1 37 2.8 57 57 NW 9 15 30.11 1020 10 16 0.00 0.00
10:53 pm 22:53 Clear 52 11.1 39 3.9 61 61 NW 8 13 30.11 1020 10 16 0.00 0.00
11:53 pm 23:53 Clear 51 10.6 38 3.3 61 61 NNW 7 11 30.11 1020 10 16 0.00 0.00

Powered by AerisWeather